Regional Weather Roundup
Issued by NWS

Home | Current Version | Previous Version | Graphics & Text | Print | Product List | Glossary Off
Versions: 1 2 3 4 5 6 7 8 9 10 11 12 13 14 15 16 17 18 19 20 21 22 23 24 25 26 27 28 29 30 31 32 33 34 35 36 37 38 39 40 41 42 43 44 45 46 47 48 49 50

000
ASUS43 KFSD 302310
RWRSD

WEATHER ROUNDUP FOR SOUTH DAKOTA
NATIONAL WEATHER SERVICE SIOUX FALLS SD
600 PM CDT TUE AUG 30 2016

NOTE: "FAIR" INDICATES FEW OR NO CLOUDS BELOW 12,000 FEET WITH NO
SIGNIFICANT WEATHER AND/OR OBSTRUCTIONS TO VISIBILITY.


SDZ001>005-009-010-012>017-310000-
NORTHWEST AND NORTH CENTRAL SOUTH DAKOTA

CITY           SKY/WX    TMP DP  RH WIND       PRES   REMARKS
BUFFALO          N/A     86  58  38 SE20      30.09F
FAITH            N/A     86  62  44 SE10      30.15F
MOBRIDGE       CLOUDY    87  55  33 E13       30.13S
$$

SDZ012>016-024>037-041>051-057-063-072>074-310000-
SOUTHWEST AND SOUTH CENTRAL SOUTH DAKOTA

CITY           SKY/WX    TMP DP  RH WIND       PRES   REMARKS
RAPID CTY ARPT CLOUDY    83  60  45 SE8       30.18F
PIERRE         SUNNY     89  63  41 E17G29    30.12R
CUSTER         SUNNY     74  51  44 E9        30.34S
ELLSWORTH AFB  MOSUNNY   82  60  48 CALM      30.18
PHILIP         SUNNY     89  61  38 SE10      30.12F
PINE RIDGE     SUNNY     86  56  35 E10       30.18F
WINNER         FAIR      89  63  41 E12       30.14F
$$

SDZ004>011-016>023-039-040-310000-
NORTHEAST SOUTH DAKOTA

CITY           SKY/WX    TMP DP  RH WIND       PRES   REMARKS
ABERDEEN       SUNNY     84  53  34 E10       30.16F
WATERTOWN      SUNNY     80  57  45 NE8       30.19F
BROOKINGS      SUNNY     79  62  56 E8        30.19F
SISSETON         N/A     82  54  37 NE5       30.18F
$$

SDZ017-020-022-023-036>040-048>070-310000-
SOUTHEAST SOUTH DAKOTA

CITY           SKY/WX    TMP DP  RH WIND       PRES   REMARKS
SIOUX FALLS    CLOUDY    81  70  69 E10       30.17F
HURON          MOSUNNY   82  64  54 E12       30.14F
CHAMBERLAIN    SUNNY     89  63  42 SE9       30.13F
MITCHELL       MOSUNNY   82  68  62 E12       30.14S
YANKTON        CLOUDY    82  66  57 E8        30.13S
$$

ABBREVIATIONS USED IN REMARKS
   TC - TEMPERATURE IN CELSIUS
  WCI - WIND CHILL INDEX
   HX - HEAT INDEX
  VSB - VISIBILITY





USA.gov is the U.S. government's official web portal to all federal, state and local government web resources and services.